Location: Zagreb
(45.8000°N, 16.0000°E)
Time: 12:45:55
(UTC+01:00)

Vanguard 1 Rocket - Pass Details

Date: 07 October 2020
Orbit: 656 x 4221 km, 34.3° (Epoch: 28 October)

Event Time Altitude Azimuth Distance (km) Brightness Sun altitude
Rises 17:14:23 0° 238° (WSW) 4,093 12.7 11.0°
Reaches altitude 10° 17:16:46 10° 232° (SW) 3,427 12.1 10.6°
Maximum altitude 17:25:17 46° 162° (SSE) 2,603 9.9 9.2°
Drops below altitude 10° 17:41:12 10° 98° (E) 6,229 11.1 6.5°
Sets 17:47:23 0° 94° (E) 7,740 11.5 5.5°
